This demonstration page uses our WeatherBlox Daily Observations layout. Learn more.

Hourly Observations for December 2, 2019

Temp ( °F °C ) Dew Point ( °F °C ) Humidity (%) Winds ( mph kmh ) Pressure ( in mb ) Visibility ( mi km ) Precip ( " mm )
12:15 am 00:15 Clear 22 -5.6 20 -6.4 94 94 W 6 9 30.36 1028 10 16.0934 0 0
12:35 am 00:35 Clear 23 -5 21 -6.1 92 92 WSW 8 13 30.35 1028 10 16.0934 0 0
12:55 am 00:55 Clear 23 -5 21 -6.3 91 91 W 10 17 30.34 1028 10 16.0934 0 0
1:15 am 01:15 Clear 23 -5.2 20 -6.5 91 91 W 8 13 30.36 1028 10 16.0934 0 0
1:35 am 01:35 Clear 22 -5.5 20 -6.7 91 91 W 6 9 30.35 1028 10 16.0934 0 0
1:55 am 01:55 Clear 23 -5.2 20 -6.6 90 90 WNW 3 6 30.35 1028 10 16.0934 0 0
2:15 am 02:15 Clear 22 -5.7 19 -7 91 91 WNW 3 6 30.35 1028 10 16.0934 0 0
2:35 am 02:35 Clear 21 -6.1 19 -7.4 91 91 W 3 6 30.36 1028 10 16.0934 0 0
2:55 am 02:55 Clear 21 -6.2 19 -7.5 91 91 Calm 30.35 1028 10 16.0934 0 0
3:15 am 03:15 Clear 21 -6 19 -7.2 91 91 Calm 30.33 1027 10 16.0934 0 0
3:35 am 03:35 Clear 20 -6.5 19 -7.5 93 93 Calm 30.33 1027 10 16.0934 0 0
3:55 am 03:55 Clear 18 -7.7 16 -8.7 93 93 WNW 3 6 30.34 1027 10 16.0934 0 0
4:15 am 04:15 Clear 20 -6.9 18 -7.9 93 93 Calm 30.34 1028 10 16.0934 0 0
4:35 am 04:35 Clear 20 -6.6 18 -7.7 92 92 WSW 3 6 30.34 1027 10 16.0934 0 0
4:55 am 04:55 Clear 19 -7.1 18 -7.9 94 94 Calm 30.34 1027 10 16.0934 0 0
5:15 am 05:15 Clear 22 -5.8 19 -7.4 89 89 Calm 30.32 1027 10 16.0934 0 0
5:35 am 05:35 Clear 20 -6.9 17 -8.2 91 91 SW 3 6 30.32 1027 10 16.0934 0 0
5:55 am 05:55 Clear 19 -7.5 17 -8.6 92 92 Calm 30.34 1027 10 16.0934 0 0
6:15 am 06:15 Clear 19 -7 17 -8.2 91 91 Calm 30.32 1027 10 16.0934 0 0
6:35 am 06:35 Clear 19 -7 17 -8.1 92 92 SW 3 6 30.32 1027 10 16.0934 0 0
6:55 am 06:55 Clear 20 -6.7 18 -8 91 91 SW 5 7 30.32 1027 10 16.0934 0 0
7:15 am 07:15 Clear 19 -7.2 17 -8.4 91 91 Calm 30.33 1027 10 16.0934 0 0
7:35 am 07:35 Clear 20 -6.8 18 -8 91 91 SW 5 7 30.32 1027 10 16.0934 0 0
7:55 am 07:55 Sunny 20 -6.5 18 -7.8 91 91 SSW 6 9 30.31 1026 10 16.0934 0 0
8:15 am 08:15 Sunny 21 -5.9 18 -7.6 88 88 SW 6 9 30.3 1026 10 16.0934 0 0
8:35 am 08:35 Sunny 23 -5.2 19 -7.2 86 86 SW 6 9 30.29 1026 10 16.0934 0 0
8:55 am 08:55 Sunny 23 -5 19 -7 86 86 SW 3 6 30.29 1026 10 16.0934 0 0
9:15 am 09:15 Sunny 24 -4.4 20 -6.5 85 85 SW 7 11 30.29 1026 10 16.0934 0 0
9:35 am 09:35 Sunny 26 -3.6 21 -6 84 84 SW 9 15 30.28 1025 10 16.0934 0 0
9:55 am 09:55 Sunny 27 -3 22 -5.8 81 81 SW 7 11 30.26 1025 10 16.0934 0 0
10:15 am 10:15 Sunny 28 -2.1 22 -5.3 79 79 SW 7 11 30.26 1025 10 16.0934 0 0
10:35 am 10:35 Sunny 29 -1.4 23 -5 77 77 SSW 9 15 30.24 1024 10 16.0934 0 0
10:55 am 10:55 Sunny 32 0 24 -4.5 72 72 SSW 10 17 30.22 1023 10 16.0934 0 0
11:15 am 11:15 Sunny 33 0.6 24 -4.2 71 71 SW 12 19 30.2 1023 10 16.0934 0 0
11:35 am 11:35 Sunny 34 1.2 25 -4 69 69 SSW 9 15 30.17 1022 10 16.0934 0 0
11:55 am 11:55 Sunny 34 1.3 26 -3.5 71 71 SSW 9 15 30.17 1022 10 16.0934 0 0
12:15 pm 12:15 Sunny 35 1.6 27 -3 72 72 SSW 9 15 30.15 1021 10 16.0934 0 0
12:35 pm 12:35 Sunny 36 2.2 27 -2.6 71 71 SSW 7 11 30.13 1020 10 16.0934 0 0
12:55 pm 12:55 Sunny 37 2.8 29 -1.9 72 72 SW 7 11 30.12 1020 10 16.0934 0 0
1:15 pm 13:15 Sunny 38 3.3 29 -1.9 69 69 SW 7 11 30.1 1019 10 16.0934 0 0
1:35 pm 13:35 Sunny 39 4 29 -1.5 68 68 SSW 7 11 30.08 1019 10 16.0934 0 0
1:55 pm 13:55 Sunny 40 4.2 29 -1.4 67 67 SW 6 9 30.08 1018 10 16.0934 0 0
2:15 pm 14:15 Sunny 41 5 30 -1.3 64 64 SSW 7 11 30.05 1018 10 16.0934 0 0
2:35 pm 14:35 Sunny 42 5.5 30 -1.2 62 62 SW 6 9 30.04 1017 10 16.0934 0 0
2:55 pm 14:55 Sunny 42 5.6 30 -1.1 62 62 SW 5 7 30.04 1017 10 16.0934 0 0
3:15 pm 15:15 Sunny 43 6 30 -1 61 61 Calm 30.04 1017 10 16.0934 0 0
3:35 pm 15:35 Sunny 43 6 30 -1.3 60 60 WSW 3 6 30.04 1017 10 16.0934 0 0
3:55 pm 15:55 Sunny 41 4.9 30 -1 66 66 Calm 30.06 1018 10 16.0934 0 0
4:15 pm 16:15 Sunny 40 4.5 31 -0.7 69 69 Calm 30.05 1018 10 16.0934 0 0
4:35 pm 16:35 Sunny 40 4.2 31 -0.6 71 71 Calm 30.07 1018 10 16.0934 0 0
4:55 pm 16:55 Sunny 38 3.5 30 -0.9 73 73 Calm 30.06 1018 10 16.0934 0 0
5:15 pm 17:15 Clear 38 3.1 30 -1.2 74 74 NW 5 7 30.07 1018 10 16.0934 0 0
5:35 pm 17:35 Clear 35 1.9 30 -1.3 80 80 WNW 3 6 30.09 1019 10 16.0934 0 0
5:55 pm 17:55 Clear 37 2.5 29 -1.4 76 76 SW 3 6 30.07 1018 10 16.0934 0 0
6:15 pm 18:15 Clear 36 2 29 -1.6 77 77 S 6 9 30.07 1018 10 16.0934 0 0
6:35 pm 18:35 Clear 33 0.5 29 -1.6 86 86 SW 6 9 30.08 1019 10 16.0934 0 0
6:55 pm 18:55 Clear 36 2.2 29 -1.8 75 75 SW 7 11 30.05 1018 10 16.0934 0 0
7:15 pm 19:15 Clear 34 1.2 28 -2.2 78 78 SW 3 6 30.06 1018 10 16.0934 0 0
7:30 pm 19:30 Clear 35 1.8 29 -1.9 77 77 SW 5 7 30.06 1018 10 16.0934 0 0
7:55 pm 19:55 Clear 36 2.2 28 -2 74 74 Calm 30.05 1018 10 16.0934 0 0
8:15 pm 20:15 Clear 36 2.2 28 -2 74 74 WSW 3 6 30.05 1018 10 16.0934 0 0
8:35 pm 20:35 Clear 37 2.5 28 -2.2 71 71 WSW 3 6 30.04 1017 10 16.0934 0 0
8:55 pm 20:55 Clear 33 0.5 27 -2.8 79 79 Calm 30.06 1018 10 16.0934 0 0
9:15 pm 21:15 Clear 35 1.6 28 -2 77 77 W 8 13 30.05 1018 10 16.0934 0 0
9:35 pm 21:35 Clear 35 1.8 29 -1.9 77 77 W 7 11 30.05 1018 10 16.0934 0 0
9:55 pm 21:55 Clear 34 0.9 28 -2.1 81 81 WNW 5 7 30.05 1017 10 16.0934 0 0
10:15 pm 22:15 Clear 33 0.4 28 -2.2 83 83 W 7 11 30.05 1018 10 16.0934 0 0
10:35 pm 22:35 Clear 34 1.1 28 -2 80 80 WNW 7 11 30.03 1017 10 16.0934 0 0
10:55 pm 22:55 Clear 33 0.6 28 -2.5 80 80 WNW 7 11 30.03 1017 10 16.0934 0 0
11:15 pm 23:15 Clear 31 -0.4 27 -2.7 85 85 WNW 7 11 30.04 1017 10 16.0934 0 0
11:35 pm 23:35 Clear 32 0 28 -2.5 83 83 WNW 7 11 30.03 1017 10 16.0934 0 0
11:55 pm 23:55 Clear 32 -0.1 28 -2.4 85 85 WNW 7 11 30.05 1017 10 16.0934 0 0

Powered by AerisWeather